Weather Roundup
Issued by NWS

Home | Current Version | Previous Version | Text Only | Print | Product List | Glossary On
Versions: 1 2 3 4 5 6 7 8 9 10 11 12 13 14 15 16 17 18 19 20 21 22 23 24 25 26 27 28 29 30 31 32 33 34 35 36 37 38 39 40 41 42 43 44 45 46 47 48 49 50
000
NZUS93 KARX 030910
HRRWXR

CURRENT HOURLY OBSERVATIONS ACROSS
MUCH OF THE UPPER MISSISSIPPI VALLEY
NATIONAL WEATHER SERVICE LA CROSSE WI
400 AM CDT THU SEP 03 2015


...SOUTHEAST MINNESOTA...


CITY           SKY/WX    TMP DP  RH WIND       PRES   REMARKS
ROCHESTER      CLEAR     65  64  97 SE5       29.93R FOG
ROCHESTER/MAYO CLOUDY    69  70 100 SE5       29.92S
WINONA         CLEAR     70  68  94 CALM      29.91R FOG
AUSTIN         CLEAR     66  64  94 CALM      29.91S FOG
ALBERT LEA     CLEAR     68  66  94 CALM      29.90S FOG
DODGE CENTER   CLEAR     66  66 100 SE6       29.92R FOG
PRESTON        PTCLDY    66  65  94 CALM      29.93S FOG
OWATONNA       CLEAR     68  66  94 E5        29.90S FOG
FARIBAULT      FOG       66  64  94 CALM      29.90S VSB 1/4
$$

...ELSEWHERE IN MINNESOTA...


CITY           SKY/WX    TMP DP  RH WIND       PRES   REMARKS
MINNEAPOLIS    PTCLDY    68  66  93 E6        29.90R
INTNL FALLS    CLEAR     60  59  96 SE7       29.93F
DULUTH         FOG       61  61 100 E7        29.97S VSB 1/4
RED WING       FOG       68  66  94 E6        29.89S VSB 1
REDWOOD FALLS  FOG       70  69  97 E5        29.85S VSB 1/4
MANKATO        CLEAR     70  66  88 SE5       29.88S
WORTHINGTON    CLEAR     66  64  94 SE6       29.87S
FAIRMONT       CLEAR     68  63  83 S3        29.87F
$$

...SOUTHWEST WISCONSIN...


CITY           SKY/WX    TMP DP  RH WIND       PRES   REMARKS
LA CROSSE      CLEAR     73  69  87 SE6       29.90R
PRAIRIE DU CHI MOCLDY    73  68  86 CALM      29.91S
BOSCOBEL       CLEAR     70  68  93 CALM      29.92R FOG
LONE ROCK      CLEAR     69  66  90 CALM      29.92S
PLATTEVILLE    CLOUDY    72  70  93 S3        29.95R
FORT MC COY    CLEAR     65  63  95 CALM      29.92S FOG
CAMP DOUGLAS   CLEAR     69  69 100 N3        29.92R
VIROQUA          N/A     69  69 100 SW3       29.94R
WIS DELLS      CLEAR     73  66  80 W5        29.92S
$$

...ELSEWHERE IN WISCONSIN...


CITY           SKY/WX    TMP DP  RH WIND       PRES   REMARKS
MILWAUKEE      PTCLDY    73  69  87 SW9       29.92F
MADISON        CLEAR     72  68  87 SW5       29.92S
GREEN BAY      CLOUDY    70  69  97 CALM      29.89R FOG
EAU CLAIRE     CLOUDY    69  67  93 NE5       29.92R
BLACK RVR FLS  FOG       65  65 100 CALM      29.92R VSB<1/4
MEDFORD        CLOUDY    65  65 100 NE3       29.95S FOG
WAUSAU         MOCLDY    68  66  93 NW3       29.92S
WIS RAPIDS     CLOUDY    71  67  87 CALM      29.93F
MARSHFIELD     MOCLDY    68  65  90 CALM      29.93F FOG
RICE LAKE      CLOUDY    64  63  96 CALM      29.95S FOG
$$

...NORTHEAST IOWA...


CITY           SKY/WX    TMP DP  RH WIND       PRES   REMARKS
DECORAH        CLOUDY    72  70  94 S3        29.92S
MASON CITY     CLEAR     66  66 100 S3        29.92R FOG
CHARLES CITY   CLEAR     66  66 100 SE5       29.92S FOG
OELWEIN          N/A     68  68 100 SE5       29.94R FOG
$$

...ELSEWHERE IN IOWA...


CITY           SKY/WX    TMP DP  RH WIND       PRES   REMARKS
DES MOINES     PTCLDY    74  68  81 S7        29.90S
IOWA CITY      CLEAR     69  67  93 CALM      29.94R
FORT DODGE     CLEAR     72  66  83 S5        29.90S
$$

...NORTHERN ILLINOIS...


CITY           SKY/WX    TMP DP  RH WIND       PRES   REMARKS
CHICAGO-OHARE  PTCLDY    74  69  85 SW6       29.95S
CHICAGO-MIDWAY PTCLDY    77  67  71 SW7       29.96R
MOLINE         MOCLDY    75  68  78 CALM      29.94R
ROCKFORD       PTCLDY    71  67  87 S6        29.96S
PEORIA         CLEAR     73  67  81 CALM      29.97S
$$

NOTE: "FAIR" INDICATES FEW OR NO CLOUDS BELOW 12,000 FEET WITH NO
SIGNIFICANT WEATHER AND/OR OBSTRUCTIONS TO VISIBILITY. WIND
SPEEDS ARE IN MILES-PER-HOUR.



USA.gov is the U.S. government's official web portal to all federal, state and local government web resources and services.